AL YAH 3

Last updated on Sat Apr 13 2024 01:02:39 GMT+0100 (British Summer Time)

1 43174U 18012A 24103.37356830 -.00000164 00000+0 00000+0 0 9996 2 43174 0.0681 270.9642 0001883 107.9047 296.5875 1.00271351 22864
UTC large
Height (km)
Speed (km/s)
/
Latitude / Longitude
Inclination (degrees)
Orbital Period (minutes)
Azimuth
Elevation
Range (km)
Doppler Factor

Next 0 passes for location: London (51.5072 / 0.1276)

Sorry there are no passes over London.